This demonstration page uses our WeatherBlox Daily Observations layout. Learn more.

Left ArrowRight Arrow

34.02893, -84.19858

Hourly Observations for November 18, 2022

Temp ( °F °C ) Dew Point ( °F °C ) Humidity (%) Winds ( mph kmh ) Pressure ( in mb ) Visibility ( mi km ) Precip ( " mm )
12:53 am 00:53 Clear 30 -1.1 20 -6.7 66 66 Calm 30.31 1026 10 16 0.00 0.00
1:53 am 01:53 Clear 28 -2.2 21 -6.1 75 75 Calm 30.32 1027 10 16 0.00 0.00
2:53 am 02:53 Clear 29 -1.7 20 -6.7 69 69 WNW 3 6 30.31 1026 10 16 0.00 0.00
3:53 am 03:53 Clear 30 -1.1 20 -6.7 66 66 WNW 6 9 30.31 1027 10 16 0.00 0.00
4:53 am 04:53 Clear 29 -1.7 20 -6.7 69 69 WNW 6 9 30.33 1027 10 16 0.00 0.00
5:53 am 05:53 Clear 28 -2.2 20 -6.7 71 71 WNW 6 9 30.35 1028 10 16 0.00 0.00
6:53 am 06:53 Clear 30 -1.1 19 -7.2 63 63 NNW 8 13 30.35 1028 10 16 0.00 0.00
7:53 am 07:53 Sunny 32 0 19 -7.2 58 58 NW 3 6 30.36 1028 10 16 0.00 0.00
8:53 am 08:53 Sunny 37 2.8 19 -7.2 48 48 NNW 6 9 30.37 1029 10 16 0.00 0.00
9:53 am 09:53 Sunny 42 5.6 19 -7.2 39 39 N 7 11 30.38 1029 10 16 0.00 0.00
10:53 am 10:53 Sunny 46 7.8 19 -7.2 34 34 NW 9 15 30.38 1029 10 16 0.00 0.00
11:53 am 11:53 Sunny 49 9.4 19 -7.2 30 30 N 7 11 30.36 1028 10 16 0.00 0.00
12:53 pm 12:53 Sunny 50 10 20 -6.7 30 30 NW 6 9 30.33 1027 10 16 0.00 0.00
1:53 pm 13:53 Sunny 52 11.1 22 -5.6 30 30 VRB 7 11 30.31 1026 10 16 0.00 0.00
2:53 pm 14:53 Sunny 52 11.1 22 -5.6 30 30 WNW 10 17 30.29 1026 10 16 0.00 0.00
3:53 pm 15:53 Sunny 52 11.1 23 -5 32 32 WNW 9 15 30.28 1025 10 16 0.00 0.00
4:53 pm 16:53 Sunny 50 10 24 -4.4 36 36 NW 7 11 30.29 1026 10 16 0.00 0.00
5:53 pm 17:53 Clear 46 7.8 25 -3.9 43 43 WNW 5 7 30.30 1026 10 16 0.00 0.00
6:53 pm 18:53 Clear 42 5.6 25 -3.9 50 50 SW 3 6 30.32 1027 10 16 0.00 0.00
7:53 pm 19:53 Clear 38 3.3 27 -2.8 64 64 Calm 30.34 1027 10 16 0.00 0.00
8:53 pm 20:53 Clear 39 3.9 27 -2.8 62 62 WSW 3 6 30.35 1028 10 16 0.00 0.00
9:53 pm 21:53 Clear 37 2.8 27 -2.8 67 67 Calm 30.34 1028 10 16 0.00 0.00
10:53 pm 22:53 Clear 39 3.9 28 -2.2 64 64 W 5 7 30.34 1027 10 16 0.00 0.00
11:53 pm 23:53 Clear 38 3.3 28 -2.2 67 67 Calm 30.33 1027 10 16 0.00 0.00

Powered by AerisWeather